Location: Kitchener-Waterloo
(43.4500°N, 80.5000°W)
Time: 08:58:00
(UTC-05:00)

ISS - All Passes

Search period start: 30 January 2015 00:00
Search period end: 09 February 2015 00:00
Orbit: 401 x 408 km, 51.6° (Epoch: 29 January)

Date Brightness Start Highest point End Pass type
(mag) Time Alt. Az. Time Alt. Az. Time Alt. Az.
30 Jan - 01:21:31 10° NW 01:24:00 19° N 01:26:29 10° NE night (unlit)
30 Jan - 02:58:05 10° NW 03:01:09 34° NNE 03:04:13 10° E night (unlit)
30 Jan - 04:34:33 10° WNW 04:37:41 41° SW 04:40:48 10° SSE night (unlit)
30 Jan - 21:15:03 10° SSW 21:17:58 30° SE 21:20:56 10° ENE night (unlit)
30 Jan - 22:51:15 10° W 22:54:23 40° NNW 22:57:32 10° NE night (unlit)
31 Jan - 00:28:59 10° NW 00:31:29 20° N 00:34:00 10° NE night (unlit)
31 Jan - 02:05:53 10° NW 02:08:43 26° NNE 02:11:34 10° ENE night (unlit)
31 Jan - 03:42:11 10° WNW 03:45:29 77° SW 03:48:47 10° SE night (unlit)
31 Jan - 20:23:40 10° S 20:25:51 17° SE 20:28:06 10° E night (unlit)
31 Jan - 21:58:47 10° WSW 22:02:02 65° NNW 22:05:19 10° NE night (unlit)
31 Jan - 23:36:20 10° WNW 23:38:58 22° N 23:41:37 10° NE night (unlit)
01 Feb - 01:13:37 10° NW 01:16:14 21° N 01:18:53 10° ENE night (unlit)
01 Feb - 02:49:55 10° NW 02:53:11 61° NNE 02:56:28 10° ESE night (unlit)
01 Feb - 04:27:01 10° W 04:29:25 18° SW 04:31:45 10° S night (unlit)
01 Feb - 21:06:29 10° SW 21:09:44 72° SSE 21:13:01 10° ENE night (unlit)
01 Feb - 22:43:37 10° WNW 22:46:28 26° NNW 22:49:20 10° NE night (unlit)
02 Feb - 00:21:12 10° NW 00:23:42 19° N 00:26:12 10° NE night (unlit)
02 Feb - 01:57:40 10° NW 02:00:48 39° NNE 02:03:56 10° E night (unlit)
02 Feb - 03:34:14 10° WNW 03:37:15 33° SW 03:40:15 10° SSE night (unlit)
02 Feb - 20:14:26 10° SSW 20:17:30 38° SE 20:20:35 10° ENE visible
02 Feb - 21:50:55 10° W 21:53:59 35° NNW 21:57:04 10° NE night (unlit)
02 Feb - 23:28:39 10° NW 23:31:07 19° N 23:33:36 10° NE night (unlit)
03 Feb - 01:05:25 10° NW 01:08:20 28° NNE 01:11:15 10° E night (unlit)
03 Feb - 02:41:45 10° WNW 02:45:01 62° SW 02:48:16 10° SE night (unlit)
03 Feb - 19:22:47 10° S 19:25:17 21° SE 19:27:51 10° E visible
03 Feb - 20:58:19 10° WSW 21:01:33 54° NNW 21:04:47 10° NE visible
03 Feb - 22:35:57 10° WNW 22:38:32 21° N 22:41:07 10° NE night (unlit)
04 Feb - 00:13:06 10° NW 00:15:48 23° NNE 00:18:30 10° ENE night (unlit)
04 Feb - 01:49:23 10° NW 01:52:41 74° NNE 01:55:58 10° ESE night (unlit)
04 Feb - 03:26:49 10° W 03:28:49 15° SW 03:30:45 10° S night (unlit)
04 Feb - 18:32:04 10° SSE 18:33:07 11° SE 18:34:17 10° ESE visible
04 Feb - 20:05:53 10° SW 20:09:09 87° SSE 20:12:27 10° ENE visible
04 Feb - 21:43:11 10° WNW 21:45:57 24° NNW 21:48:44 10° NE night (unlit)
04 Feb - 23:20:41 10° NW 23:23:12 20° N 23:25:43 10° NE night (unlit)
05 Feb - 00:57:04 10° NW 01:00:16 45° NNE 01:03:26 10° E night (unlit)
05 Feb - 02:33:46 10° WNW 02:36:37 27° SW 02:39:26 10° SSE night (unlit)
05 Feb - 19:13:40 10° SW 19:16:49 47° SE 19:19:59 10° ENE visible
05 Feb - 20:50:24 10° W 20:53:24 31° NNW 20:56:24 10° NE visible
05 Feb - 22:28:07 10° NW 22:30:34 19° N 22:33:01 10° NE night (unlit)
06 Feb - 00:04:45 10° NW 00:07:44 31° NNE 00:10:44 10° E night (unlit)
06 Feb - 01:41:07 10° WNW 01:44:20 50° SW 01:47:32 10° SE night (unlit)
06 Feb - 18:21:48 10° SSW 18:24:31 25° SE 18:27:19 10° E visible
06 Feb - 19:57:42 10° WSW 20:00:52 46° NNW 20:04:03 10° NE visible
06 Feb - 21:35:23 10° WNW 21:37:54 20° N 21:40:26 10° NE night (unlit)
06 Feb - 23:12:24 10° NW 23:15:09 24° NNE 23:17:55 10° ENE night (unlit)
07 Feb - 00:48:39 10° WNW 00:51:58 89° NNE 00:55:15 10° ESE night (unlit)
07 Feb - 02:26:36 10° WSW 02:28:02 12° SW 02:29:21 10° SSW night (unlit)
07 Feb - 17:30:32 10° SSE 17:32:16 14° SE 17:34:07 10° E daylight
07 Feb - 19:05:08 10° WSW 19:08:23 77° NNW 19:11:41 10° NE visible
07 Feb - 20:42:33 10° WNW 20:45:15 23° NNW 20:47:57 10° NE visible
07 Feb - 22:19:57 10° NW 22:22:29 20° N 22:25:03 10° ENE night (unlit)
07 Feb - 23:56:15 10° NW 23:59:29 52° NNE 00:02:43 10° ESE night (unlit)
08 Feb - 01:33:09 10° W 01:35:47 22° SW 01:38:23 10° S night (unlit)
08 Feb - 18:12:46 10° SW 18:15:57 58° SE 18:19:12 10° ENE visible
08 Feb - 19:49:42 10° W 19:52:37 28° NNW 19:55:32 10° NE visible
08 Feb - 21:27:21 10° NW 21:29:48 19° N 21:32:16 10° NE night (unlit)
08 Feb - 23:03:53 10° NW 23:06:56 34° NNE 23:10:00 10° E night (unlit)
